リニア彗星

439P/LINEAR (2009)

English version
Home page
Updated on January 26, 2022

---------------------------------------------------------------------

・ プロフィール

符号 439P/2008 WZ96
発見日 2008年11月30日、12月28日
発見光度 18.3等、18.1等
発見者 Lincoln Laboratory Near-Earth Asteroid Research project

・ 写真集

・ 軌道要素

Epoch 2009 Jan. 9.0 TT = JDT 2454840.5                                          
T 2009 Jan. 23.90727 TT                                 Veres                   
q   1.6462761            (2000.0)            P               Q                  
n   0.16022528     Peri.  337.61927     +0.79906053     -0.59219512             
a   3.3572372      Node    59.11032     +0.56835861     +0.68756665             
e   0.5096337      Incl.    6.95794     +0.19613965     +0.42018691             
P   6.15                                                                        
From 148 observations 2008 Nov. 30-2021 Dec. 2, mean residual 0".7.             

・ 光度変化

        m1 = 14.5 + 5 logΔ + 10.0 log r

---------------------------------------------------------------------

軌道要素はM.P.E.C. 2021-X81に掲載されたものです。
光度グラフはComet for Windowsで作成したものです。

---------------------------------------------------------------------

Copyright(C) Seiichi Yoshida (comet@aerith.net). All rights reserved.